Location: La Trinit�
(48.1620°N, 3.4512°W)
Time: 09:31:06
(UTC+00:00)

USA 308 - Pass Details

Date: 08 May 2021
Orbit: 568 x 576 km, 54.0° (Epoch: 10 May)

Event Time Altitude Azimuth Distance (km) Brightness Sun altitude
Rises 22:54:11 0° 298° (WNW) 2,787 7.1 -22.3°
Reaches altitude 10° 22:56:27 10° 296° (WNW) 1,887 6.1 -22.4°
Enters shadow 23:00:30 66° 236° (WSW) 628 2.9 -22.7°
